www.pogodaiklimat.ru

Погода и климат >> Архив погоды >> Россия >> Ямало-Ненецкий АО >> Тазовский


АРХИВ ПОГОДЫ в Тазовском

Время (UTC), дата Ветер
(напр.,м/с)
 
Видим.   Явления Облачность Т
(С)
Тd
(С)
f
(%)
Тe
(С)
Тes
(С)
Комфортность P
(гПа)
Po
(гПа)
Тmin
(С)
Tmax
(С)
R
(мм)
R24
(мм)
S
(см)
12 11.06 ЮВ 3 50 км 10/0
[Ac As]
+3.4 -2.2 67 -0 +1 1009.2 1005.8
15 11.06 ЮВ 3 50 км 8/0
[Ac trans]
+3.0 -2.0 70 -1 -0 1008.0 1004.6 +3.7
18 11.06 ЮВ 4 20 км 9/0
[Ac trans]
+2.5 -1.6 74 -2 -2 1006.9 1003.4
21 11.06 Ю 2 20 км 10/0
[Ac As]
+2.3 -1.4 77 -1 -1 1005.4 1001.9
00 12.06 Ю 1 50 км 10/0
[Cs]
+2.7 -0.9 77 +1 +3 1004.1 1000.7
03 12.06 В 2 50 км 9/4 300 м
[Sc diur, vesp Ac trans Ci sp]
+4.3 +0.3 75 +2 +4 1002.5 999.1 +1.9 0
06 12.06 В 3 20 км слаб. дождь 10/4 300 м
[Frnb As op]
+3.9 +1.3 83 0 +1 1001.2 997.8
09 12.06 В 3 20 км слаб. дождь 10/3 200 м
[Frnb As op]
+4.4 +2.5 87 +1 +2 1000.9 997.5
12 12.06 В 2 20 км {дождь} 10/10 90 м
[Sc]
+4.9 +2.9 87 +2 +2 1000.2 996.8
15 12.06 В 2 20 км 9/6 120 м
[St Ci fib]
+4.8 +3.8 93 +2 +2 999.0 995.6 +5.2 0.4
18 12.06 ЮВ 2 20 км 8/3 300 м
[Cb cap Ac trans]
+4.8 +4.2 96 +2 +2 997.5 994.2
21 12.06 С 1 20 км слаб. ливневой дождь 9/4 300 м
[Cb cap Ac trans]
+3.9 +3.6 98 +2 +2 995.4 992.1
00 13.06 С 2 10 км слаб. дождь 10/4 200 м
[Frnb Ac As]
+4.0 +3.7 98 +1 +1 993.0 989.6
03 13.06 С 5 10 км слаб. дождь 10/10 120 м
[Sc]
+3.3 +3.0 98 -2 -2 990.1 986.7 +3.3 5 0
06 13.06 С 5
{10}
4000 м слаб. дождь 10/0 120 м
[As op]
+2.7 +2.1 96 -3 -2 988.3 984.9 +2.7
09 13.06 СЗ 6-12
{12}
4000 м слаб. дождь 10/0 90 м
[As op]
+1.5 +1.0 96 -5 -4 987.5 984.1
12 13.06 СЗ 7-12
{13}
10 км слаб. дождь 10/0 120 м
[As op]
+1.2 +0.6 96 -6 -6 986.7 983.3
15 13.06 СЗ 9-15
{15}
10 км слаб. ливневой снег {дождь} 10/10 120 м
[Cb cap Ac As]
+0.6 -0.1 95 -7 -7 985.9 982.5 +3.3 9
18 13.06 СЗ 8-13
{17}
10 км слаб. ливневой дождь 10/10 120 м
[Cb calv]
+0.3 -0.4 95 -7 -7 984.3 980.9
21 13.06 СЗ 7
{15}
10 км слаб. ливневой дождь 10/10 90 м
[Cb calv]
+0.2 -0.2 97 -7 -7 981.9 978.5
00 14.06 З 10-13
{15}
4000 м слаб. дождь 10/0 60 м
[As op]
+0.5 -0.2 95 -8 -8 981.9 977.1
03 14.06 ЮЗ 10-15
{15}
4000 м слаб. ливневой снег 10/10 120 м
[Cb cap Ac As]
+0.3 -0.0 98 -8 -8 979.7 976.3 +0.1 14 0
06 14.06 ЮЗ 11-16
{17}
200 м ливневой снег 10/10 90 м
[Cb calv]
+0.2 -0.1 98 -9 -9 981.1 977.8 +0.1
09 14.06 Ю 9-13
{17}
1000 м ливневой снег {метель} 10/10 120 м
[Cb calv]
+0.4 +0.2 99 -8 -8 983.5 980.1
12 14.06 Ю 8-13
{17}
1000 м ливневой снег {метель} 10/10 120 м
[Cb calv]
+0.3 +0.1 99 -7 -7 984.8 981.4
15 14.06 З 4
{14}
2000 м ливневой снег [диам. отлож. мокр. снега 4 мм] 10/10 120 м
[Cb calv]
+0.2 -0.0 99 -5 -5 985.4 982.0 +0.5 8
18 14.06 З 8-11
{11}
1000 м ливневой снег [диам. отлож. мокр. снега 12 мм] 10/10 60 м
[Cb cap]
0.0 -0.1 99 -8 -8 986.3 982.9
21 14.06 З 10-15
{15}
1000 м ливневой снег {метель} [диам. отлож. мокр. снега 15 мм] 10/10 90 м
[Cb cap]
-0.0 -0.2 99 -8 -8 987.9 984.5
00 15.06 З 11-16
{17}
20 км {ливн. осадки, метель} [диам. отлож. мокр. снега 16 мм] 10/10 150 м
[Sc diur, vesp]
-0.4 -0.5 99 -9 -9 991.0 987.6
03 15.06 З 9-13
{16}
20 км [диам. отлож. мокр. снега 10 мм] 10/10 360 м
[Cb calv]
-0.2 -1.4 92 -8 -8 994.3 990.9 -0.4 6 10
06 15.06 З 8-12
{16}
50 км [диам. отлож. мокр. снега 0 мм] 6/4 300 м
[Cb calv Ci fib]
+3.0 +0.7 85 -4 -2 998.3 994.9
09 15.06 ЮЗ 7-10
{12}
50 км 10/10 570 м
[Sc]
+3.7 +0.4 79 -2 -2 1000.8 997.4
12 15.06 ЮЗ 5
{12}
50 км 8/3 600 м
[Cb calv Ac trans]
+4.5 +1.4 80 -0 +1 1002.8 999.3
15 15.06 Ю 3 50 км 8/0
[Ac trans Ci fib]
+5.7 +1.4 74 +3 +3 1003.4 1000.0 +5.8
18 15.06 Ю 4 20 км 6/3 600 м
[Sc Ci fib]
+3.7 +1.9 88 -1 -1 1003.6 1000.2
21 15.06 Ю 4 н/о н/о +2.9 +1.6 91 -2 -2 1003.2 999.8
00 16.06 Ю 4 20 км 6/3 600 м
[Sc Ci fib]
+4.9 +2.3 83 +1 +2 1003.5 1000.1
03 16.06 Ю 4 50 км 9/0
[Ac trans Ci fib]
+7.7 +3.9 77 +4 +7 1003.6 1000.2 +2.8 0
06 16.06 Ю 8-13
{14}
50 км {ливн. осадки} 8/4 300 м
[Cb calv Ac trans Ci fib]
+10.3 +4.2 66 +7 +7 1003.1 999.8
09 16.06 Ю 7-11
{16}
50 км {ливн. осадки} 8/4 600 м
[Cu hum Ci fib]
+12.0 +3.3 55 +9 +11 1002.7 999.4
12 16.06 Ю 6
{16}
50 км {ливн. осадки} 8/3 600 м
[Cu med, cong Ac trans Ci fib]
+11.3 +2.4 54 +9 +9 1002.7 999.4
15 16.06 Ю 5
{11}
50 км 8/3 600 м
[Cu med, cong Ac trans Ci fib]
+11.0 +2.8 57 +9 +9 1002.7 999.4 +12.2 0.0
18 16.06 Ю 3
{11}
50 км 3/0
[Ac trans]
+7.3 +3.1 75 +5 +5 1002.4 999.1
21 16.06 Ю 4 20 км 3/3 200 м
[St]
+5.3 +2.1 80 +1 +1 1001.5 998.1
00 17.06 Ю 4 50 км 1/0
[Ci fib]
+7.4 +3.2 75 +4 +5 1001.0 997.6
03 17.06 ЮВ 4 50 км 5/3 600 м
[Cu hum Ac trans Ci sp]
+12.7 +4.7 58 +11 +14 999.9 996.6 +5.2
06 17.06 Ю 5
{11}
50 км 9/3 600 м
[Cu hum Ac trans Ci sp]
+12.9 +3.7 54 +11 +13 998.6 995.3
09 17.06 Ю 6
{11}
50 км 9/3 600 м
[Cu hum Ac trans Ci sp]
+15.2 +4.1 47 +14 +15 998.1 994.8
12 17.06 ЮЗ 4
{11}
20 км 8/4 600 м
[Cb cap Ac trans]
+13.0 +8.2 73 +11 +12 998.9 995.6
15 17.06 В 1 20 км в посл. час ливневой дождь 9/4 600 м
[Cb cap Ac trans]
+9.7 +7.0 83 +9 +9 999.1 995.8 +16.0 0.0
18 17.06 ЮВ 2 20 км {ливн. осадки} 9/4 600 м
[Sc Ac trans]
+9.5 +6.9 84 +8 +8 998.7 995.4
21 17.06 В 2 20 км в посл. час ливневой дождь 9/4 600 м
[Cb cap Ac trans Ci fib]
+8.6 +8.2 97 +7 +7 997.0 993.7
00 18.06 ЮВ 3 50 км {ливн. осадки} 4/3 1000 м
[Sc Ac trans Ci fib]
+10.7 +7.1 78 +9 +10 996.4 993.1
03 18.06 ЮВ 2 50 км 4/1 1000 м
[Sc Ci fib]
+13.2 +7.3 67 +13 +19 994.9 991.6 +8.3 1

 

Местоположение метеостанции Тазовский (Ямало-Ненецкий АО, Россия): широта 67.47 долгота 78.73 высота над уровнем моря 28 м.

В архиве по умолчанию представлена погода в Тазовском за последнюю неделю. Архивные данные за месяц целиком и за предыдущие месяцы, начиная с января 2011 года, Вы можете получить, выбрав интересующий диапазон дат из раскрывающегося списка и нажав кнопку "Ввод!".


*Определитесь, кто Вы:
робот инопланетянин человек

Внимание! Время в таблицах - всемирное. Для получения местного времени необходимо прибавить поправку, которая равна 5 ч.

Смотрите также архив погоды в соседних городах и на ближайших метеорологических станциях:

Погода в Уренгое (Ямало-Ненецкий АО, Россия) (170 км)
Погода в Новом Уренгое (Ямало-Ненецкий АО, Россия) (175 км)
Погода в Антипаюте (Ямало-Ненецкий АО, Россия) (195 км)
Погода в Советской Речке (Красноярский край, Россия) (231 км)
Погода в Новом Порте (Ямало-Ненецкий АО, Россия) (249 км)
Погода в Красноселькупске (Ямало-Ненецкий АО, Россия) (256 км)
Погода в Пангодах (Ямало-Ненецкий АО, Россия) (261 км)
Погода в Ныде (Ямало-Ненецкий АО, Россия) (268 км)
Погода в Тарко-Сале (Ямало-Ненецкий АО, Россия) (287 км)
Погода в Игарке (Красноярский край, Россия) (334 км)

Пояснения к столбцам:

Ветер - указаны скорость ветра в м/с - средняя за 10 мин, порывы в срок и между сроками (в фигурных скобках) и направление, откуда дует ветер: С - северный, СВ - северо-восточный, В - восточный, ЮВ - юго-восточный, Ю - южный, ЮЗ - юго-западный, З - западный, СЗ - северо-западный.
Видимость - горизонтальная дальность видимости в метрах или километрах. При видимости от 1 до 10 км при отсутствии осадков обычно наблюдается дымка, при ухудшении видимости до 1 км и менее - туман. В сухую погоду видимость может ухудшаться дымом, пылью или мглою.
Явления - указаны атмосферные явления, наблюдавшиеся в срок или в последний час перед сроком; фигурными скобками обозначены явления, наблюдавшиеся между сроками (за 1-3 часа до срока); квадратными скобками обозначены град или гололедные отложения с указанием их диаметра в мм.
Облачность - указаны через наклонную черту общая и нижняя облачность в баллах и высота нижней границы облаков в метрах; квадратными скобками обозначены формы облаков: Ci - перистые, Cs - перисто-слоистые, Cc - перисто-кучевые, Ac - высококучевые, As - высокослоистые, Sc - слоисто-кучевые, Ns - слоисто-дождевые, Cu - кучевые, Cb - кучево-дождевые. Подробнее классификацию облаков см. в Атласе облаков (PDF).
T - Температура воздуха - температура, измеренная на высоте 2 м над землей.
Td - Температура точки росы - температура, при понижении до которой содержащийся в воздухе водяной пар достигнет насыщения.
f - Относительная влажность воздуха - влажноcть воздуха, измеренная на высоте 2 м над землей.
Te - Эффективная температура - температура, которую ощущает одетый по сезону человек в тени. Характеристика душности погоды. При расчете учитывается влияние влажности воздуха и скорости ветра на теплоощущения человека.
Tes - Эффективная температура на солнце - температура, которую ощущает человек, с поправкой на солнечный нагрев. Характеристика знойности погоды. Зависит от высоты солнца над горизонтом, облачности и скорости ветра. Ночью, в пасмурную погоду, а также при ветре 12 м/с и более поправка равна нулю.
P - Атмосферное давление - приведенное к уровню моря атмосферное давление.
Po - Атмосферное давление - измеренное на уровне метеостанции атмосферное давление.
Tmin - Минимальная температура - минимум температуры воздуха на высоте 2 м над землей.
Tmax - Максимальная температура - максимум температуры воздуха на высоте 2 м над землей.
R - Количество осадков - Количество выпавших осадков за период времени, мм. При наведении курсора мыши на число - период времени, за который выпало указанное количество осадков.
R24 - Количество осадков - Количество выпавших осадков за 24 часа, мм.
S - Снежный покров - Высота снежного покрова, см. При наведении курсора мыши на число - состояние снежного покрова и степень покрытия местности в баллах.